EST,Max TemperatureF,Mean TemperatureF,Min TemperatureF,Max Dew PointF,MeanDew PointF,Min DewpointF,Max Humidity, Mean Humidity, Min Humidity, Max Sea Level PressureIn, Mean Sea Level PressureIn, Min Sea Level PressureIn, Max VisibilityMiles, Mean VisibilityMiles, Min VisibilityMiles, Max Wind SpeedMPH, Mean Wind SpeedMPH, Max Gust SpeedMPH,PrecipitationIn, CloudCover, Events, WindDirDegrees
2014-2-1,62,45,28,37,27,18,86,53,19,30.12,30.06,29.99,10,10,10,10,4,20,0.00,0,,110
2014-2-2,51,43,35,48,41,34,100,83,66,30.08,30.02,29.96,10,8,0,10,3,20,0.00,8,,55
2014-2-3,37,34,32,36,33,32,100,94,87,30.25,30.11,29.88,10,8,1,12,4,22,0.00,8,,31
2014-2-4,53,42,32,45,36,30,100,80,54,30.25,30.08,29.84,10,9,5,10,5,16,0.00,7,,79
2014-2-5,55,40,26,50,35,19,100,84,74,30.28,29.97,29.72,10,9,3,21,8,31,0.00,8,,273
2014-2-6,33,28,24,21,20,18,80,71,56,30.38,30.31,30.27,10,9,5,9,4,,0.00,7,,348
2014-2-7,37,32,26,23,21,19,80,70,48,30.37,30.30,30.24,10,10,10,7,2,,0.00,5,,303
2014-2-8,41,34,28,30,28,23,93,80,65,30.24,30.18,30.11,10,9,2,8,1,,0.00,8,,161
2014-2-9,37,34,32,36,33,30,100,93,87,30.16,30.09,30.02,10,8,2,13,3,16,0.00,8,,283
2014-2-10,32,28,24,30,24,18,93,79,69,30.26,30.18,30.11,10,10,3,10,4,,0.00,6,,13
2014-2-11,35,27,19,18,14,9,86,58,33,30.31,30.26,30.23,10,10,10,9,2,,0.00,0,,40
2014-2-12,35,30,24,32,20,12,100,67,38,30.25,30.07,29.84,10,8,0,10,4,21,0.00,5,,95
2014-2-13,39,32,26,32,30,27,100,92,65,29.83,29.75,29.72,10,5,0,8,4,,0.00,5,,138
2014-2-14,50,36,23,36,29,23,100,78,43,29.81,29.73,29.60,10,8,0,9,1,16,0.00,3,,163
2014-2-15,37,30,23,36,22,14,100,77,60,30.10,29.95,29.59,10,7,1,16,8,30,0.00,7,,288
2014-2-16,46,36,26,32,27,21,100,79,53,30.20,30.08,30.01,10,9,1,12,2,17,0.00,6,,293
2014-2-17,55,42,28,43,31,27,100,70,35,30.21,30.09,29.90,10,8,2,15,4,28,0.00,3,,126
2014-2-18,59,46,32,32,27,19,100,54,23,30.23,30.11,29.96,10,10,7,17,7,28,0.00,1,,118
2014-2-19,64,54,44,52,40,25,100,62,32,30.08,29.97,29.86,10,9,1,18,6,31,0.00,4,,287
2014-2-20,69,55,41,54,45,34,81,60,46,30.05,29.93,29.75,10,10,10,14,3,26,0.00,6,,172
2014-2-21,66,50,33,54,31,16,94,60,22,30.09,29.93,29.71,10,9,2,23,7,36,0.00,3,,258
2014-2-22,62,45,28,32,24,12,100,59,15,30.18,30.09,30.01,10,10,10,9,3,,0.00,0,,134
2014-2-23,66,50,33,34,29,27,81,55,23,30.08,30.01,29.92,10,10,10,17,3,30,0.00,2,,321
2014-2-24,44,37,30,34,16,1,93,50,18,30.23,30.17,30.08,10,10,10,15,4,22,0.00,3,,336
2014-2-25,44,36,28,21,16,9,69,47,25,30.14,30.06,29.98,10,10,10,10,3,16,0.00,4,,329
2014-2-26,33,28,23,19,13,3,74,53,34,30.06,29.96,29.88,10,10,2,13,4,20,0.00,4,,307
2014-2-27,39,28,17,10,6,3,63,42,24,30.04,29.93,29.89,10,10,10,14,5,24,0.00,0,,272
2014-2-28,50,34,19,14,9,1,80,41,16,30.16,30.09,30.04,10,10,10,9,2,,0.00,0,,101